Weather History for Del Bajio, Mexico

Change the Weather History Date:

Saturday, October 29, 2011

  Actual Average Record
Temperature  
Mean Temperature 66 °F -  
Max Temperature 82 °F 78 °F 84 °F (2004)
Min Temperature 51 °F 49 °F 39 °F (2007)
Cooling Degree Days 2    
Growing Degree Days 16 (Base 50)    
Moisture  
Dew Point 41 °F    
Average Humidity 46    
Maximum Humidity 88    
Minimum Humidity 19    
Precipitation  
Precipitation 0.00 in - - ()
Sea Level Pressure  
Sea Level Pressure 30.14 in    
Wind  
Wind Speed 5 mph ()    
Max Wind Speed 12 mph    
Max Gust Speed -    
Visibility 9.2 miles    
Events      
Averages and records for this station are not official NWS values.
T = Trace of Precipitation, MM = Missing Value Source: Averaged Metar Reports

Daily Weather History Graph

Daily Weather History Graph

Search for Another Location

Airport:

Trip Planner

Search our weather history database for the weather conditions in past years. The results will help you decide how hot, cold, wet, or windy it might be!

Date:

Astronomy

Oct. 29, 2011 Rise Set
Actual Time 7:46 AM CDT 7:11 PM CDT
Civil Twilight 7:24 AM CDT 7:34 PM CDT
Nautical Twilight 6:58 AM CDT 8:00 PM CDT
Astronomical Twilight 6:32 AM CDT 8:26 PM CDT
Moon 10:48 AM CDT (10/29) 10:00 PM CDT (10/29)
Length of Visible Light 12h 10m
Length of Day
11h 25m
Waxing Crescent, 12% of the Moon is Illuminated
Oct 29
Waxing Crescent
Nov 2
First Quarter
Nov 10
Full
Nov 18
Last Quarter
Nov 25
New

Hourly Weather History & Observations

Time (CDT) Temp. Dew Point Humidity Pressure Visibility Wind Dir Wind Speed Gust Speed Precip Events Conditions
12:41 AM 57.2 °F 42.8 °F 59% 29.88 in 8.0 mi SSE 5.8 mph - N/A   Clear
1:44 AM 57.2 °F 44.6 °F 63% 30.27 in 8.0 mi SE 8.1 mph - N/A   Clear
2:44 AM 55.4 °F 42.8 °F 63% 30.24 in 8.0 mi ESE 5.8 mph - N/A   Clear
3:40 AM 53.6 °F 46.4 °F 77% 29.84 in 8.0 mi Calm Calm - N/A   Clear
4:44 AM 51.8 °F 46.4 °F 82% 30.27 in 8.0 mi Calm Calm - N/A   Clear
5:44 AM 51.8 °F 48.2 °F 88% 30.27 in 8.0 mi NE 4.6 mph - N/A   Clear
6:41 AM 51.8 °F 46.4 °F 82% 29.93 in 7.0 mi NE 6.9 mph - N/A   Scattered Clouds
7:41 AM 53.6 °F 46.4 °F 77% 30.30 in 7.0 mi ENE 8.1 mph - N/A   Scattered Clouds
8:42 AM 57.2 °F 46.4 °F 67% 30.33 in 8.0 mi Calm Calm - N/A   Scattered Clouds
9:43 AM 66.2 °F 39.2 °F 37% 30.03 in 8.0 mi NNE 3.5 mph - N/A   Partly Cloudy
10:44 AM 69.8 °F 44.6 °F 40% 30.36 in 10.0 mi Calm Calm - N/A   Clear
11:46 AM 73.4 °F 42.8 °F 33% 30.33 in 10.0 mi South 8.1 mph - N/A   Clear
12:43 PM 75.2 °F 39.2 °F 27% 29.96 in 10.0 mi Calm Calm - N/A   Clear
1:42 PM 80.6 °F 35.6 °F 20% 30.27 in 10.0 mi South 8.1 mph - N/A   Partly Cloudy
2:47 PM 80.6 °F 37.4 °F 21% 30.24 in 12.0 mi South 8.1 mph - N/A   Scattered Clouds
3:43 PM 82.4 °F 37.4 °F 20% 29.80 in 12.0 mi SSE 11.5 mph - N/A   Scattered Clouds
4:40 PM 82.4 °F 35.6 °F 19% 30.19 in 12.0 mi WSW 3.5 mph - N/A   Scattered Clouds
5:42 PM 82.4 °F 37.4 °F 20% 30.18 in 12.0 mi SSW 5.8 mph - N/A   Scattered Clouds
6:42 PM 78.8 °F 35.6 °F 21% 29.82 in 12.0 mi South 4.6 mph - N/A   Scattered Clouds
7:40 PM 69.8 °F 37.4 °F 31% 30.19 in 10.0 mi SSW 5.8 mph - N/A   Scattered Clouds
8:40 PM 66.2 °F 37.4 °F 35% 30.20 in 8.0 mi Calm Calm - N/A   Scattered Clouds
9:50 PM 62.6 °F 37.4 °F 39% 29.92 in 8.0 mi SE 6.9 mph - N/A   Partly Cloudy
10:43 PM 64.4 °F 35.6 °F 34% 30.23 in 8.0 mi NE 9.2 mph - N/A   Partly Cloudy
11:50 PM 60.8 °F 35.6 °F 39% 30.23 in 8.0 mi SSE 10.4 mph - N/A   Partly Cloudy